Location: Clermont
(50.2608°N, 4.3172°E)
Time: 23:22:59
(UTC+00:00)

ATLAS 5 CENTAUR R/B - Pass Details

Date: 13 August 2020
Orbit: 267 x 14297 km, 60.7° (Epoch: 23 September)

Event Time Altitude Azimuth Distance (km) Brightness Sun altitude
Rises 20:15:53 0° 318° (NW) 1,910 6.6 -10.6°
Reaches altitude 10° 20:17:32 10° 339° (NNW) 1,215 4.6 -10.8°
Maximum altitude 20:19:26 22° 36° (NE) 972 3.1 -11.0°
Drops below altitude 10° 20:22:41 10° 89° (E) 2,178 4.4 -11.4°
Enters shadow 20:23:10 - 92° (E) 2,402 4.6 -11.5°
